| DS18B20 | SHTC3 | ||||||
|---|---|---|---|---|---|---|---|
| ID | Date d/m/Y & Time | data1 สูง | data2 ต่ำ | data3 นอก | temp pcb | hum pcb | Time |
| 6988 | 29/03/2026 20:25:24 | 29.4  | 29.4  | 28.5  | 29.1  | 71.8  | 20:25 |
| 6987 | 29/03/2026 20:20:42 | 29.4  | 29.4  | 28.5  | 29.4  | 72.0  | 20:20 |
| 6986 | 29/03/2026 20:16:00 | 29.4  | 29.4  | 28.5  | 29.3  | 71.9  | 20:16 |
| 6985 | 29/03/2026 20:11:19 | 29.4  | 29.5  | 28.5  | 29.4  | 71.8  | 20:11 |
| 6984 | 29/03/2026 20:06:37 | 29.4  | 29.5  | 28.5  | 29.3  | 71.9  | 20:06 |
| 6983 | 29/03/2026 20:01:55 | 29.4  | 29.5  | 28.5  | 29.4  | 71.9  | 20:01 |
| 6982 | 29/03/2026 19:57:14 | 29.4  | 29.5  | 28.5  | 29.6  | 71.9  | 19:57 |
| 6981 | 29/03/2026 19:52:32 | 29.5  | 29.6  | 28.5  | 29.4  | 71.8  | 19:52 |
| 6980 | 29/03/2026 19:47:50 | 29.5  | 29.6  | 28.6  | 29.5  | 71.9  | 19:47 |
| 6979 | 29/03/2026 19:43:09 | 29.5  | 29.6  | 28.6  | 29.6  | 71.8  | 19:43 |
| 6978 | 29/03/2026 19:38:27 | 29.5  | 29.6  | 28.6  | 29.4  | 71.8  | 19:38 |
| 6977 | 29/03/2026 19:33:46 | 29.6  | 29.6  | 28.6  | 29.4  | 71.7  | 19:33 |
| 6976 | 29/03/2026 19:29:05 | 29.6  | 29.6  | 28.6  | 29.6  | 71.7  | 19:29 |
| 6975 | 29/03/2026 19:24:21 | 29.6  | 29.7  | 28.6  | 29.6  | 71.7  | 19:24 |
| 6974 | 29/03/2026 19:19:39 | 29.6  | 29.7  | 28.5  | 29.5  | 71.6  | 19:19 |
| 6973 | 29/03/2026 19:14:57 | 29.6  | 29.7  | 28.6  | 29.6  | 71.7  | 19:14 |
| 6972 | 29/03/2026 19:10:15 | 29.7  | 29.8  | 28.6  | 29.6  | 71.6  | 19:10 |
| 6971 | 29/03/2026 19:05:34 | 29.7  | 29.8  | 28.7  | 29.6  | 71.5  | 19:05 |
| 6970 | 29/03/2026 19:00:52 | 29.8  | 29.8  | 28.7  | 29.7  | 71.6  | 19:00 |
| 6969 | 29/03/2026 18:56:10 | 29.8  | 29.8  | 28.7  | 29.9  | 71.6  | 18:56 |
| 6968 | 29/03/2026 18:51:28 | 29.8  | 29.8  | 28.7  | 29.7  | 71.6  | 18:51 |
| 6967 | 29/03/2026 18:46:46 | 29.8  | 29.9  | 28.7  | 29.8  | 71.5  | 18:46 |
| 6966 | 29/03/2026 18:42:05 | 29.8  | 29.9  | 28.7  | 29.7  | 71.4  | 18:42 |
| 6965 | 29/03/2026 18:37:22 | 29.8  | 29.9  | 28.7  | 29.8  | 71.4  | 18:37 |